Regional Weather Roundup
Issued by NWS

Home | Current Version | Previous Version | Text Only | Print | Product List | Glossary Off
Versions: 1 2 3 4 5 6 7 8 9 10 11 12 13 14 15 16 17 18 19 20 21 22 23 24 25 26 27 28 29 30 31 32 33 34 35 36 37 38 39 40 41 42 43 44 45 46 47 48 49 50

000
ASUS43 KBIS 081910
RWRND

NORTH DAKOTA REGIONAL WEATHER ROUNDUP
NATIONAL WEATHER SERVICE BISMARCK ND
100 PM CST MON FEB 08 2016

NOTE: "FAIR" INDICATES FEW OR NO CLOUDS BELOW 12,000 FEET WITH NO
SIGNIFICANT WEATHER AND/OR OBSTRUCTIONS TO VISIBILITY.


NDZ001>003-009>011-017-082000-
NORTHWEST NORTH DAKOTA

CITY           SKY/WX    TMP DP  RH WIND       PRES   REMARKS
WILLISTON      MOSUNNY   34  19  54 NW14      30.33F
MINOT          MOSUNNY   32  10  40 NW22G30   30.26F WCI  19
MINOT AFB      PTSUNNY   30  11  44 NW21G29   30.26F WCI  17
$$

NDZ018>021-031>035-040>046-082000-
SOUTHWEST NORTH DAKOTA

CITY           SKY/WX    TMP DP  RH WIND       PRES   REMARKS
BISMARCK       MOSUNNY   35  17  47 N22G30    30.27S
DICKINSON      CLOUDY    35  13  40 NW22G31   30.27S
GARRISON         N/A     31  17  56 NW23G33   30.26F WCI  18
HETTINGER ARPT CLOUDY    36  11  35 NW26G35   30.29F
$$

NDZ004>008-012>016-024-026-027-054-082000-
NORTHEAST NORTH DAKOTA

CITY           SKY/WX    TMP DP  RH WIND       PRES   REMARKS
GRAND FORKS    SNOW      14   7  73 N30G38    30.21R VSB 1/2 WCI  -7
GRND FRKS AFB  LGT SNOW  14   7  73 N25G33    30.21R WCI  -5
DEVILS LAKE    FLURRIES  18  11  74 N21       30.21F WCI   1
$$

NDZ022-023-025-028>030-036>039-047>053-082000-
SOUTHEAST NORTH DAKOTA

CITY           SKY/WX    TMP DP  RH WIND       PRES   REMARKS
FARGO          LGT SNOW  15   9  76 N22       30.18S VSB 3/4 WCI  -3
JAMESTOWN      PTSUNNY   23  12  62 N30G37    30.18S WCI   5
$$




USA.gov is the U.S. government's official web portal to all federal, state and local government web resources and services.